When you browse on this site, cookies collect data to enhance your experience and personalize the content and advertising you see.
Visit our Privacy Policy to learn more. By continuing to use the site, you agree to this use of cookies and data.
  • In Czech Republic
  • List of Countries
  • For 7 days
  • Water Temperature
  • Satellite Maps
  • Weather Map
  • Weather Widgets
  • user-avatar
    Login

    Hourly Weather Fez

    Today, 20 March, Wednesday

    Time Temperature Precipitation Wind Pressure Humidity
    00:00 +14°C° 0 mm 2 mps 731 mmHg 77%
    01:00 +13°C° 0 mm 2 mps 731 mmHg 76%
    02:00 +12°C° 0 mm 3 mps 731 mmHg 75%
    03:00 +11°C° 0 mm 3 mps 731 mmHg 74%
    04:00 +11°C° 0 mm 3 mps 731 mmHg 71%
    05:00 +10°C° 0 mm 3 mps 731 mmHg 68%
    06:00 +10°C° 0 mm 3 mps 731 mmHg 65%
    07:00 +10°C° 0 mm 5 mps 731 mmHg 58%
    08:00 +13°C° 0 mm 6 mps 731 mmHg 50%
    09:00 +14°C° 0 mm 7 mps 732 mmHg 42%
    10:00 +16°C° 0 mm 7 mps 732 mmHg 39%
    11:00 +17°C° 0 mm 8 mps 732 mmHg 36%
    12:00 +18°C° 0 mm 8 mps 732 mmHg 33%
    13:00 +19°C° 0 mm 9 mps 731 mmHg 33%
    14:00 +19°C° 0 mm 9 mps 731 mmHg 33%
    15:00 +19°C° 0 mm 9 mps 730 mmHg 32%
    16:00 +17°C° 0 mm 8 mps 730 mmHg 35%
    17:00 +16°C° 0 mm 8 mps 730 mmHg 38%
    18:00 +15°C° 0 mm 7 mps 730 mmHg 41%
    19:00 +14°C° 0 mm 7 mps 731 mmHg 44%
    20:00 +12°C° 0 mm 7 mps 731 mmHg 48%
    21:00 +10°C° 0 mm 6 mps 732 mmHg 52%
    22:00 +10°C° 0 mm 6 mps 732 mmHg 55%
    23:00 +9°C° 0 mm 6 mps 732 mmHg 58%

    Tomorrow, 21 March, Thursday

    Time Temperature Precipitation Wind Pressure Humidity
    00:00 +9°C° 0 mm 6 mps 732 mmHg 61%
    01:00 +8°C° 0 mm 6 mps 731 mmHg 62%
    02:00 +8°C° 0 mm 6 mps 731 mmHg 64%
    03:00 +8°C° 0 mm 5 mps 730 mmHg 65%
    04:00 +8°C° 0 mm 5 mps 730 mmHg 65%
    05:00 +7°C° 0 mm 5 mps 730 mmHg 65%
    06:00 +7°C° 0 mm 5 mps 730 mmHg 65%
    07:00 +9°C° 0 mm 6 mps 731 mmHg 59%
    08:00 +10°C° 0 mm 7 mps 731 mmHg 53%
    09:00 +12°C° 0 mm 8 mps 731 mmHg 47%
    10:00 +13°C° 0 mm 9 mps 731 mmHg 43%
    11:00 +16°C° 0 mm 9 mps 731 mmHg 39%
    12:00 +17°C° 0 mm 10 mps 731 mmHg 35%
    13:00 +17°C° 0 mm 10 mps 730 mmHg 34%
    14:00 +18°C° 0 mm 10 mps 730 mmHg 33%
    15:00 +18°C° 0 mm 10 mps 729 mmHg 32%
    16:00 +17°C° 0 mm 10 mps 729 mmHg 33%
    17:00 +16°C° 0 mm 9 mps 729 mmHg 33%
    18:00 +15°C° 0 mm 9 mps 729 mmHg 33%
    19:00 +13°C° 0 mm 8 mps 730 mmHg 39%
    20:00 +12°C° 0 mm 8 mps 730 mmHg 44%
    21:00 +12°C° 0 mm 7 mps 730 mmHg 50%
    22:00 +11°C° 0 mm 7 mps 730 mmHg 54%
    23:00 +10°C° 0 mm 6 mps 730 mmHg 58%

    Day after tomorrow, 22 March, Friday

    Time Temperature Precipitation Wind Pressure Humidity
    00:00 +10°C° 0 mm 6 mps 730 mmHg 63%
    01:00 +9°C° 0 mm 5 mps 730 mmHg 63%
    02:00 +9°C° 0 mm 5 mps 730 mmHg 64%
    03:00 +9°C° 0 mm 5 mps 730 mmHg 65%
    04:00 +8°C° 0 mm 4 mps 730 mmHg 66%
    05:00 +8°C° 0 mm 4 mps 730 mmHg 67%
    06:00 +8°C° 0 mm 3 mps 730 mmHg 68%
    07:00 +10°C° 0 mm 4 mps 730 mmHg 62%
    08:00 +12°C° 0 mm 5 mps 731 mmHg 56%
    09:00 +14°C° 0 mm 6 mps 731 mmHg 50%
    10:00 +16°C° 0 mm 6 mps 731 mmHg 45%
    11:00 +19°C° 0 mm 6 mps 731 mmHg 40%
    12:00 +21°C° 0 mm 7 mps 731 mmHg 35%
    13:00 +21°C° 0 mm 7 mps 730 mmHg 35%
    14:00 +21°C° 0 mm 8 mps 730 mmHg 34%
    15:00 +21°C° 0 mm 9 mps 729 mmHg 33%
    16:00 +20°C° 0 mm 8 mps 729 mmHg 35%
    17:00 +18°C° 0 mm 8 mps 729 mmHg 36%
    18:00 +17°C° 0 mm 8 mps 729 mmHg 38%
    19:00 +16°C° 0 mm 7 mps 729 mmHg 43%
    20:00 +15°C° 0 mm 7 mps 730 mmHg 48%
    21:00 +14°C° 0 mm 6 mps 730 mmHg 53%
    22:00 +13°C° 0 mm 6 mps 730 mmHg 56%
    23:00 +13°C° 0 mm 5 mps 730 mmHg 60%

    23 March, Saturday

    Time Temperature Precipitation Wind Pressure Humidity
    00:00 +12°C° 0 mm 5 mps 729 mmHg 63%
    01:00 +12°C° 0 mm 4 mps 729 mmHg 64%
    02:00 +12°C° 0 mm 4 mps 729 mmHg 65%
    03:00 +11°C° 0 mm 4 mps 728 mmHg 66%
    04:00 +11°C° 0 mm 4 mps 728 mmHg 66%
    05:00 +11°C° 0 mm 4 mps 728 mmHg 67%
    06:00 +11°C° 0 mm 3 mps 728 mmHg 67%
    07:00 +13°C° 0 mm 4 mps 728 mmHg 60%
    08:00 +15°C° 0 mm 5 mps 728 mmHg 54%
    09:00 +17°C° 0 mm 6 mps 729 mmHg 47%
    10:00 +20°C° 0 mm 7 mps 728 mmHg 43%
    11:00 +21°C° 0 mm 7 mps 728 mmHg 38%
    12:00 +23°C° 0 mm 8 mps 728 mmHg 34%
    13:00 +23°C° 0 mm 8 mps 727 mmHg 33%
    14:00 +23°C° 0 mm 8 mps 727 mmHg 32%
    15:00 +24°C° 0 mm 8 mps 726 mmHg 31%
    16:00 +23°C° 0 mm 7 mps 726 mmHg 32%
    17:00 +22°C° 0 mm 6 mps 726 mmHg 34%
    18:00 +20°C° 0 mm 5 mps 727 mmHg 35%
    19:00 +19°C° 0 mm 5 mps 727 mmHg 37%
    20:00 +19°C° 0 mm 4 mps 727 mmHg 39%
    21:00 +18°C° 0 mm 4 mps 728 mmHg 41%
    22:00 +17°C° 0 mm 4 mps 727 mmHg 45%
    23:00 +16°C° 0 mm 3 mps 727 mmHg 49%

    24 March, Sunday

    Time Temperature Precipitation Wind Pressure Humidity
    00:00 +16°C° 0 mm 3 mps 727 mmHg 54%
    01:00 +14°C° 0 mm 3 mps 727 mmHg 58%
    02:00 +14°C° 0 mm 2 mps 726 mmHg 62%
    03:00 +14°C° 0 mm 2 mps 726 mmHg 65%
    04:00 +14°C° 0 mm 2 mps 726 mmHg 67%
    05:00 +14°C° 0 mm 2 mps 726 mmHg 68%
    06:00 +13°C° 0 mm 2 mps 726 mmHg 69%
    07:00 +15°C° 0 mm 2 mps 727 mmHg 64%
    08:00 +16°C° 0 mm 3 mps 727 mmHg 60%
    09:00 +17°C° 0 mm 3 mps 728 mmHg 55%
    10:00 +19°C° 0 mm 4 mps 728 mmHg 51%
    11:00 +20°C° 0 mm 4 mps 728 mmHg 46%
    12:00 +21°C° 0 mm 5 mps 728 mmHg 42%
    13:00 +21°C° 0.1 mm 5 mps 727 mmHg 42%
    14:00 +21°C° 0.1 mm 5 mps 727 mmHg 42%
    15:00 +21°C° 0.1 mm 5 mps 726 mmHg 42%
    16:00 +20°C° 0 mm 4 mps 726 mmHg 45%
    17:00 +20°C° 0 mm 4 mps 726 mmHg 48%
    18:00 +19°C° 0 mm 4 mps 726 mmHg 51%
    19:00 +18°C° 0.2 mm 3 mps 727 mmHg 56%
    20:00 +16°C° 0.2 mm 3 mps 727 mmHg 61%
    21:00 +15°C° 0.2 mm 2 mps 727 mmHg 66%
    22:00 +15°C° 0.1 mm 2 mps 727 mmHg 68%
    23:00 +14°C° 0.1 mm 2 mps 727 mmHg 70%

    25 March, Monday

    Time Temperature Precipitation Wind Pressure Humidity
    00:00 +14°C° 0.1 mm 2 mps 726 mmHg 73%
    01:00 +14°C° 0 mm 2 mps 726 mmHg 74%
    02:00 +14°C° 0 mm 2 mps 726 mmHg 76%
    03:00 +13°C° 0 mm 2 mps 726 mmHg 77%
    04:00 +13°C° 0 mm 2 mps 725 mmHg 78%
    05:00 +13°C° 0 mm 2 mps 725 mmHg 79%
    06:00 +13°C° 0 mm 2 mps 725 mmHg 79%
    07:00 +15°C° 0 mm 2 mps 726 mmHg 73%
    08:00 +16°C° 0 mm 2 mps 726 mmHg 67%
    09:00 +18°C° 0 mm 2 mps 727 mmHg 61%
    10:00 +20°C° 0 mm 3 mps 726 mmHg 54%
    11:00 +21°C° 0 mm 3 mps 726 mmHg 48%
    12:00 +24°C° 0 mm 3 mps 726 mmHg 42%
    13:00 +25°C° 0 mm 4 mps 726 mmHg 39%
    14:00 +25°C° 0 mm 4 mps 725 mmHg 37%
    15:00 +26°C° 0 mm 4 mps 725 mmHg 35%
    16:00 +25°C° 0.1 mm 4 mps 725 mmHg 40%
    17:00 +22°C° 0.1 mm 3 mps 725 mmHg 45%
    18:00 +21°C° 0.1 mm 3 mps 724 mmHg 49%
    19:00 +20°C° 0.3 mm 2 mps 725 mmHg 54%
    20:00 +18°C° 0.3 mm 2 mps 725 mmHg 58%
    21:00 +18°C° 0.3 mm 1 mps 726 mmHg 62%
    22:00 +18°C° 0.2 mm 1 mps 726 mmHg 65%
    23:00 +16°C° 0.2 mm 1 mps 725 mmHg 69%
    Show more